• In Deutschland
  • Länderverzeichnis
  • Für 7 Tage
  • Wassertemperatur
  • Satellitenkarten
  • Wetterkarte
  • Widgets
  • user-avatar
    Anmelden

    Stündliche Wetter Noto

    Heute, 25 September, Dienstag

    Zeit Temperatur Niederschläge Wind Luftdruck Luftfeuchtigkeit
    00:00 +26°C° 0 mm 3 m/S 752 mmHg 82%
    01:00 +26°C° 0 mm 3 m/S 752 mmHg 83%
    02:00 +25°C° 0 mm 4 m/S 752 mmHg 83%
    03:00 +25°C° 0 mm 4 m/S 752 mmHg 83%
    04:00 +25°C° 0 mm 5 m/S 752 mmHg 83%
    05:00 +24°C° 0 mm 7 m/S 752 mmHg 81%
    06:00 +24°C° 0 mm 8 m/S 753 mmHg 78%
    07:00 +26°C° 0 mm 10 m/S 753 mmHg 76%
    08:00 +26°C° 0 mm 10 m/S 753 mmHg 70%
    09:00 +27°C° 0 mm 10 m/S 754 mmHg 64%
    10:00 +27°C° 0 mm 10 m/S 754 mmHg 58%
    11:00 +28°C° 0 mm 10 m/S 754 mmHg 55%
    12:00 +28°C° 0 mm 9 m/S 754 mmHg 52%
    13:00 +28°C° 0 mm 9 m/S 754 mmHg 49%
    14:00 +28°C° 0 mm 9 m/S 754 mmHg 49%
    15:00 +27°C° 0 mm 8 m/S 754 mmHg 50%
    16:00 +27°C° 0 mm 8 m/S 754 mmHg 51%
    17:00 +26°C° 0 mm 8 m/S 754 mmHg 55%
    18:00 +24°C° 0 mm 8 m/S 755 mmHg 58%
    19:00 +23°C° 0 mm 8 m/S 755 mmHg 61%
    20:00 +23°C° 0 mm 8 m/S 755 mmHg 62%
    21:00 +23°C° 0 mm 8 m/S 756 mmHg 62%
    22:00 +23°C° 0 mm 8 m/S 756 mmHg 62%
    23:00 +23°C° 0.2 mm 8 m/S 756 mmHg 63%

    Morgen, 26 September, Mittwoch

    Zeit Temperatur Niederschläge Wind Luftdruck Luftfeuchtigkeit
    00:00 +22°C° 0.2 mm 8 m/S 756 mmHg 65%
    01:00 +22°C° 0.2 mm 7 m/S 756 mmHg 67%
    02:00 +21°C° 0.7 mm 7 m/S 756 mmHg 70%
    03:00 +21°C° 0.7 mm 7 m/S 756 mmHg 74%
    04:00 +21°C° 0.7 mm 7 m/S 756 mmHg 77%
    05:00 +21°C° 0.2 mm 7 m/S 756 mmHg 76%
    06:00 +21°C° 0.2 mm 7 m/S 756 mmHg 74%
    07:00 +21°C° 0.2 mm 7 m/S 756 mmHg 73%
    08:00 +22°C° 0 mm 7 m/S 757 mmHg 69%
    09:00 +23°C° 0 mm 8 m/S 757 mmHg 65%
    10:00 +23°C° 0 mm 9 m/S 757 mmHg 62%
    11:00 +23°C° 0 mm 9 m/S 757 mmHg 61%
    12:00 +23°C° 0 mm 9 m/S 757 mmHg 60%
    13:00 +23°C° 0 mm 9 m/S 757 mmHg 59%
    14:00 +23°C° 0 mm 9 m/S 757 mmHg 56%
    15:00 +23°C° 0 mm 9 m/S 757 mmHg 53%
    16:00 +23°C° 0 mm 9 m/S 756 mmHg 50%
    17:00 +22°C° 0 mm 9 m/S 757 mmHg 49%
    18:00 +21°C° 0 mm 9 m/S 757 mmHg 47%
    19:00 +21°C° 0 mm 9 m/S 757 mmHg 46%
    20:00 +19°C° 0 mm 10 m/S 758 mmHg 46%
    21:00 +19°C° 0 mm 10 m/S 758 mmHg 47%
    22:00 +18°C° 0 mm 10 m/S 758 mmHg 47%
    23:00 +18°C° 0 mm 10 m/S 758 mmHg 47%

    übermorgen, 27 September, Donnerstag

    Zeit Temperatur Niederschläge Wind Luftdruck Luftfeuchtigkeit
    00:00 +17°C° 0 mm 10 m/S 758 mmHg 48%
    01:00 +17°C° 0 mm 10 m/S 758 mmHg 48%
    02:00 +17°C° 0.1 mm 10 m/S 758 mmHg 49%
    03:00 +17°C° 0.1 mm 10 m/S 757 mmHg 50%
    04:00 +17°C° 0.1 mm 9 m/S 757 mmHg 51%
    05:00 +17°C° 0.3 mm 9 m/S 757 mmHg 52%
    06:00 +17°C° 0.3 mm 9 m/S 757 mmHg 54%
    07:00 +17°C° 0.3 mm 9 m/S 757 mmHg 55%
    08:00 +19°C° 0.2 mm 9 m/S 757 mmHg 48%
    09:00 +21°C° 0.2 mm 10 m/S 757 mmHg 41%
    10:00 +22°C° 0.2 mm 10 m/S 757 mmHg 34%
    11:00 +23°C° 0.1 mm 10 m/S 757 mmHg 32%
    12:00 +23°C° 0.1 mm 10 m/S 756 mmHg 31%
    13:00 +24°C° 0.1 mm 10 m/S 756 mmHg 29%
    14:00 +23°C° 0.1 mm 10 m/S 756 mmHg 31%
    15:00 +23°C° 0.1 mm 10 m/S 755 mmHg 32%
    16:00 +23°C° 0.1 mm 10 m/S 755 mmHg 33%
    17:00 +22°C° 0 mm 9 m/S 755 mmHg 36%
    18:00 +21°C° 0 mm 8 m/S 755 mmHg 39%
    19:00 +20°C° 0 mm 8 m/S 755 mmHg 42%
    20:00 +20°C° 0 mm 8 m/S 755 mmHg 43%
    21:00 +18°C° 0 mm 7 m/S 755 mmHg 43%
    22:00 +18°C° 0 mm 7 m/S 755 mmHg 44%
    23:00 +18°C° 0 mm 7 m/S 754 mmHg 44%

    28 September, Freitag

    Zeit Temperatur Niederschläge Wind Luftdruck Luftfeuchtigkeit
    00:00 +18°C° 0 mm 7 m/S 754 mmHg 45%
    01:00 +18°C° 0 mm 7 m/S 753 mmHg 46%
    02:00 +17°C° 0 mm 7 m/S 753 mmHg 47%
    03:00 +17°C° 0 mm 7 m/S 752 mmHg 48%
    04:00 +17°C° 0 mm 7 m/S 752 mmHg 50%
    05:00 +17°C° 0.1 mm 7 m/S 752 mmHg 50%
    06:00 +17°C° 0.1 mm 7 m/S 752 mmHg 50%
    07:00 +17°C° 0.1 mm 7 m/S 751 mmHg 50%
    08:00 +18°C° 0.2 mm 7 m/S 751 mmHg 48%
    09:00 +20°C° 0.2 mm 7 m/S 751 mmHg 46%
    10:00 +21°C° 0.2 mm 7 m/S 751 mmHg 44%
    11:00 +22°C° 0 mm 7 m/S 750 mmHg 42%
    12:00 +23°C° 0 mm 7 m/S 750 mmHg 40%
    13:00 +24°C° 0 mm 7 m/S 749 mmHg 38%
    14:00 +24°C° 0.5 mm 7 m/S 749 mmHg 41%
    15:00 +24°C° 0.5 mm 7 m/S 749 mmHg 43%
    16:00 +24°C° 0.5 mm 7 m/S 749 mmHg 45%
    17:00 +23°C° 0 mm 7 m/S 749 mmHg 48%
    18:00 +22°C° 0 mm 7 m/S 749 mmHg 51%
    19:00 +22°C° 0 mm 7 m/S 749 mmHg 53%
    20:00 +21°C° 0.1 mm 6 m/S 749 mmHg 55%
    21:00 +21°C° 0.1 mm 6 m/S 749 mmHg 56%
    22:00 +21°C° 0.1 mm 6 m/S 749 mmHg 57%
    23:00 +20°C° 0.1 mm 6 m/S 749 mmHg 57%

    29 September, Samstag

    Zeit Temperatur Niederschläge Wind Luftdruck Luftfeuchtigkeit
    00:00 +20°C° 0.1 mm 6 m/S 749 mmHg 58%
    01:00 +20°C° 0.1 mm 6 m/S 749 mmHg 58%
    02:00 +20°C° 0 mm 6 m/S 749 mmHg 57%
    03:00 +19°C° 0 mm 5 m/S 749 mmHg 57%
    04:00 +19°C° 0 mm 5 m/S 749 mmHg 56%
    05:00 +20°C° 0 mm 5 m/S 749 mmHg 56%
    06:00 +20°C° 0 mm 5 m/S 749 mmHg 56%
    07:00 +20°C° 0 mm 4 m/S 750 mmHg 55%
    08:00 +22°C° 0 mm 4 m/S 750 mmHg 50%
    09:00 +25°C° 0 mm 3 m/S 750 mmHg 46%
    10:00 +27°C° 0 mm 3 m/S 750 mmHg 41%
    11:00 +28°C° 0 mm 3 m/S 750 mmHg 39%
    12:00 +28°C° 0 mm 3 m/S 750 mmHg 38%
    13:00 +29°C° 0 mm 3 m/S 750 mmHg 36%
    14:00 +29°C° 0 mm 3 m/S 749 mmHg 38%
    15:00 +29°C° 0 mm 3 m/S 749 mmHg 39%
    16:00 +28°C° 0 mm 4 m/S 749 mmHg 41%
    17:00 +27°C° 0 mm 3 m/S 750 mmHg 47%
    18:00 +26°C° 0 mm 3 m/S 750 mmHg 53%
    19:00 +25°C° 0 mm 3 m/S 750 mmHg 58%
    20:00 +24°C° 0 mm 3 m/S 750 mmHg 60%
    21:00 +24°C° 0 mm 3 m/S 750 mmHg 62%
    22:00 +24°C° 0 mm 3 m/S 751 mmHg 64%
    23:00 +22°C° 0 mm 3 m/S 750 mmHg 65%

    30 September, Sonntag

    Zeit Temperatur Niederschläge Wind Luftdruck Luftfeuchtigkeit
    00:00 +23°C° 0 mm 2 m/S 750 mmHg 66%
    01:00 +21°C° 0 mm 2 m/S 750 mmHg 67%
    02:00 +21°C° 0 mm 2 m/S 750 mmHg 67%
    03:00 +21°C° 0 mm 3 m/S 750 mmHg 68%
    04:00 +20°C° 0 mm 3 m/S 750 mmHg 68%
    05:00 +21°C° 0 mm 3 m/S 750 mmHg 67%
    06:00 +21°C° 0 mm 2 m/S 750 mmHg 66%
    07:00 +21°C° 0 mm 2 m/S 750 mmHg 66%
    08:00 +24°C° 0 mm 2 m/S 750 mmHg 57%
    09:00 +26°C° 0 mm 2 m/S 751 mmHg 49%
    10:00 +28°C° 0 mm 1 m/S 751 mmHg 41%
    11:00 +28°C° 0 mm 1 m/S 751 mmHg 39%
    12:00 +29°C° 0 mm 1 m/S 751 mmHg 36%
    13:00 +30°C° 0 mm 2 m/S 751 mmHg 34%
    14:00 +29°C° 0 mm 2 m/S 750 mmHg 36%
    15:00 +29°C° 0 mm 2 m/S 750 mmHg 39%
    16:00 +29°C° 0 mm 3 m/S 750 mmHg 42%
    17:00 +27°C° 0 mm 3 m/S 750 mmHg 49%
    18:00 +26°C° 0 mm 2 m/S 750 mmHg 57%
    19:00 +25°C° 0 mm 2 m/S 751 mmHg 64%
    20:00 +25°C° 0 mm 2 m/S 751 mmHg 67%
    21:00 +24°C° 0 mm 2 m/S 751 mmHg 70%
    22:00 +24°C° 0 mm 2 m/S 751 mmHg 72%
    23:00 +24°C° 0 mm 2 m/S 751 mmHg 74%
    Mehr zeigen